Voltar ao catálogo

SL-14 DEB

AtivoPO
NORAD 19580·DEBRIS·🇷🇺 Russia

Lançado Oct 26, 1978 de Plesetsk Cosmodrome

Loading…

Próximas Passagens (próximas 24 horas)

TLE

AtualizadoSource: Space-Track

Época: Sep 14, 2026, 10:22 UTC

1 19580U 78100AL  26257.43240332  .00000102  00000-0  47696-3 0  9990
2 19580  82.6497 246.8318 0301622 292.0576 224.0307 12.56657742707825

Acompanhe SL-14 DEB em tempo real com AllMySat

Download on the App Store